Time,TemperatureF,DewpointF,PressureIn,WindDirection,WindDirectionDegrees,WindSpeedMPH,WindSpeedGustMPH,Humidity,HourlyPrecipIn,Conditions,Clouds,dailyrainin,SoftwareType,DateUTC
2013-03-19 00:00:00,13.6,7.2,29.90,NW,315,11.4,-999.0,75,-99.99,,,0.00,Acu-Link.com,2013-03-19 05:00:00,
2013-03-19 00:15:00,13.5,6.8,29.90,NW,315,10.4,-999.0,74,-99.99,,,0.00,Acu-Link.com,2013-03-19 05:15:00,
2013-03-19 00:30:00,13.1,6.4,29.90,NNW,337,12.5,-999.0,74,-99.99,,,0.00,Acu-Link.com,2013-03-19 05:30:00,
2013-03-19 00:45:00,12.9,6.2,29.90,NW,315,5.3,-999.0,74,-99.99,,,0.00,Acu-Link.com,2013-03-19 05:45:00,
2013-03-19 01:00:00,12.6,5.9,29.92,NW,315,7.8,-999.0,74,-99.99,,,0.00,Acu-Link.com,2013-03-19 06:00:00,
2013-03-19 01:15:00,12.6,5.6,29.94,NW,315,9.9,-999.0,73,-99.99,,,0.00,Acu-Link.com,2013-03-19 06:15:00,
2013-03-19 01:30:00,12.4,5.1,29.94,WNW,292,11.9,-999.0,72,-99.99,,,0.00,Acu-Link.com,2013-03-19 06:30:00,
2013-03-19 01:45:00,12.0,4.7,29.95,NNW,337,10.9,-999.0,72,-99.99,,,0.00,Acu-Link.com,2013-03-19 06:45:00,
2013-03-19 02:00:00,11.7,4.4,29.94,West,270,9.4,-999.0,72,-99.99,,,0.00,Acu-Link.com,2013-03-19 07:00:00,
2013-03-19 02:15:00,11.5,4.0,29.95,West,270,6.8,-999.0,71,-99.99,,,0.00,Acu-Link.com,2013-03-19 07:15:00,
2013-03-19 02:30:00,11.3,3.8,29.96,WNW,292,6.3,-999.0,71,-99.99,,,0.00,Acu-Link.com,2013-03-19 07:30:00,
2013-03-19 02:46:00,11.1,3.3,29.97,WNW,292,7.8,-999.0,70,-99.99,,,0.00,Acu-Link.com,2013-03-19 07:46:00,
2013-03-19 03:01:00,10.8,3.3,29.97,NW,315,8.3,-999.0,71,-99.99,,,0.00,Acu-Link.com,2013-03-19 08:01:00,
2013-03-19 03:16:00,10.8,3.3,29.97,West,270,9.4,-999.0,71,-99.99,,,0.00,Acu-Link.com,2013-03-19 08:16:00,
2013-03-19 03:31:00,10.4,2.9,29.96,NNW,337,6.8,-999.0,71,-99.99,,,0.00,Acu-Link.com,2013-03-19 08:31:00,
2013-03-19 04:02:00,9.9,2.4,29.96,WNW,292,4.7,-999.0,71,-99.99,,,0.00,Acu-Link.com,2013-03-19 09:02:00,
2013-03-19 04:17:00,9.7,2.2,29.97,West,270,7.3,-999.0,71,-99.99,,,0.00,Acu-Link.com,2013-03-19 09:17:00,
2013-03-19 04:32:00,9.3,2.1,29.95,NW,315,5.8,-999.0,72,-99.99,,,0.00,Acu-Link.com,2013-03-19 09:32:00,
2013-03-19 04:48:00,9.1,1.9,29.95,NW,315,5.3,-999.0,72,-99.99,,,0.00,Acu-Link.com,2013-03-19 09:48:00,
2013-03-19 05:03:00,9.0,1.8,29.95,NNW,337,5.8,-999.0,72,-99.99,,,0.00,Acu-Link.com,2013-03-19 10:03:00,
2013-03-19 05:18:00,9.0,1.8,29.96,NW,315,5.3,-999.0,72,-99.99,,,0.00,Acu-Link.com,2013-03-19 10:18:00,
2013-03-19 05:33:00,9.0,1.8,29.96,NNW,337,7.3,-999.0,72,-99.99,,,0.00,Acu-Link.com,2013-03-19 10:33:00,
2013-03-19 05:48:00,8.6,1.8,29.98,SW,225,3.7,-999.0,73,-99.99,,,0.00,Acu-Link.com,2013-03-19 10:48:00,
2013-03-19 06:03:00,8.6,1.8,29.99,West,270,4.7,-999.0,73,-99.99,,,0.00,Acu-Link.com,2013-03-19 11:03:00,
2013-03-19 06:18:00,8.4,1.6,29.99,WNW,292,2.7,-999.0,73,-99.99,,,0.00,Acu-Link.com,2013-03-19 11:18:00,
2013-03-19 06:33:00,8.2,1.7,30.00,West,270,7.3,-999.0,74,-99.99,,,0.00,Acu-Link.com,2013-03-19 11:33:00,
2013-03-19 06:49:00,8.2,1.7,30.00,NW,315,6.3,-999.0,74,-99.99,,,0.00,Acu-Link.com,2013-03-19 11:49:00,
2013-03-19 07:04:00,8.2,1.7,30.01,WNW,292,5.8,-999.0,74,-99.99,,,0.00,Acu-Link.com,2013-03-19 12:04:00,
2013-03-19 07:19:00,8.4,1.8,30.01,West,270,5.3,-999.0,74,-99.99,,,0.00,Acu-Link.com,2013-03-19 12:19:00,
2013-03-19 07:34:00,8.6,2.0,30.00,NNE,22,7.8,-999.0,74,-99.99,,,0.00,Acu-Link.com,2013-03-19 12:34:00,
2013-03-19 07:49:00,9.7,2.5,30.01,North,0,5.8,-999.0,72,-99.99,,,0.00,Acu-Link.com,2013-03-19 12:49:00,
2013-03-19 08:04:00,10.6,3.1,30.01,WNW,292,5.8,-999.0,71,-99.99,,,0.00,Acu-Link.com,2013-03-19 13:04:00,
2013-03-19 08:19:00,10.6,3.4,30.01,North,0,3.2,-999.0,72,-99.99,,,0.00,Acu-Link.com,2013-03-19 13:19:00,
2013-03-19 08:34:00,12.0,3.5,30.01,NW,315,4.2,-999.0,68,-99.99,,,0.00,Acu-Link.com,2013-03-19 13:34:00,
2013-03-19 08:50:00,12.0,3.5,30.03,NNW,337,4.7,-999.0,68,-99.99,,,0.00,Acu-Link.com,2013-03-19 13:50:00,
2013-03-19 09:05:00,13.3,4.1,30.04,West,270,6.8,-999.0,66,-99.99,,,0.00,Acu-Link.com,2013-03-19 14:05:00,
2013-03-19 09:20:00,14.9,4.3,30.03,NW,315,5.8,-999.0,62,-99.99,,,0.00,Acu-Link.com,2013-03-19 14:20:00,
2013-03-19 09:35:00,16.5,5.4,30.04,NE,45,5.8,-999.0,61,-99.99,,,0.00,Acu-Link.com,2013-03-19 14:35:00,
2013-03-19 10:06:00,16.9,4.3,30.03,NNE,22,3.7,-999.0,57,-99.99,,,0.00,Acu-Link.com,2013-03-19 15:06:00,
2013-03-19 10:21:00,18.1,4.3,30.04,East,90,3.2,-999.0,54,-99.99,,,0.00,Acu-Link.com,2013-03-19 15:21:00,
2013-03-19 10:36:00,19.2,5.3,30.04,NNW,337,2.7,-999.0,54,-99.99,,,0.00,Acu-Link.com,2013-03-19 15:36:00,
2013-03-19 10:52:00,21.4,7.0,30.04,NNW,337,5.8,-999.0,53,-99.99,,,0.00,Acu-Link.com,2013-03-19 15:52:00,
2013-03-19 11:07:00,22.1,8.0,30.05,NNE,22,4.7,-999.0,54,-99.99,,,0.00,Acu-Link.com,2013-03-19 16:07:00,
2013-03-19 11:22:00,21.6,6.3,30.06,North,0,2.2,-999.0,51,-99.99,,,0.00,Acu-Link.com,2013-03-19 16:22:00,
2013-03-19 11:38:00,23.0,7.6,30.08,NNE,22,1.1,-999.0,51,-99.99,,,0.00,Acu-Link.com,2013-03-19 16:38:00,
2013-03-19 11:53:00,24.1,5.9,30.08,WSW,247,5.3,-999.0,45,-99.99,,,0.00,Acu-Link.com,2013-03-19 16:53:00,
2013-03-19 12:08:00,24.4,7.6,30.08,NNW,337,4.7,-999.0,48,-99.99,,,0.00,Acu-Link.com,2013-03-19 17:08:00,
2013-03-19 12:24:00,25.5,8.6,30.07,WSW,247,4.2,-999.0,48,-99.99,,,0.00,Acu-Link.com,2013-03-19 17:24:00,
2013-03-19 12:39:00,26.1,9.6,30.07,NNE,22,4.2,-999.0,49,-99.99,,,0.00,Acu-Link.com,2013-03-19 17:39:00,
2013-03-19 12:54:00,26.6,10.5,30.06,East,90,6.8,-999.0,50,-99.99,,,0.00,Acu-Link.com,2013-03-19 17:54:00,
2013-03-19 13:09:00,27.3,10.2,30.07,NNW,337,9.4,-999.0,48,-99.99,,,0.00,Acu-Link.com,2013-03-19 18:09:00,
2013-03-19 13:24:00,28.8,11.6,30.07,NNE,22,3.2,-999.0,48,-99.99,,,0.00,Acu-Link.com,2013-03-19 18:24:00,
2013-03-19 13:39:00,28.8,10.2,30.07,WNW,292,8.9,-999.0,45,-99.99,,,0.00,Acu-Link.com,2013-03-19 18:39:00,
2013-03-19 13:54:00,30.2,12.9,30.07,West,270,10.9,-999.0,48,-99.99,,,0.00,Acu-Link.com,2013-03-19 18:54:00,
2013-03-19 14:10:00,29.1,11.4,30.07,West,270,3.7,-999.0,47,-99.99,,,0.00,Acu-Link.com,2013-03-19 19:10:00,
2013-03-19 14:25:00,28.9,10.3,30.08,West,270,2.7,-999.0,45,-99.99,,,0.00,Acu-Link.com,2013-03-19 19:25:00,
2013-03-19 14:40:00,29.7,11.5,30.07,NNW,337,7.8,-999.0,46,-99.99,,,0.00,Acu-Link.com,2013-03-19 19:40:00,
2013-03-19 14:55:00,29.1,12.8,30.08,North,0,8.3,-999.0,50,-99.99,,,0.00,Acu-Link.com,2013-03-19 19:55:00,
2013-03-19 15:10:00,28.9,13.1,30.08,ENE,67,6.8,-999.0,51,-99.99,,,0.00,Acu-Link.com,2013-03-19 20:10:00,
2013-03-19 15:25:00,29.1,14.1,30.08,West,270,4.2,-999.0,53,-99.99,,,0.00,Acu-Link.com,2013-03-19 20:25:00,
2013-03-19 15:40:00,29.8,14.3,30.09,WNW,292,11.9,-999.0,52,-99.99,,,0.00,Acu-Link.com,2013-03-19 20:40:00,
2013-03-19 15:55:00,29.8,14.8,30.09,WSW,247,11.9,-999.0,53,-99.99,,,0.00,Acu-Link.com,2013-03-19 20:55:00,
2013-03-19 16:10:00,30.4,16.2,30.09,NW,315,14.0,-999.0,55,-99.99,,,0.00,Acu-Link.com,2013-03-19 21:10:00,
2013-03-19 16:25:00,30.4,16.2,30.10,WNW,292,9.4,-999.0,55,-99.99,,,0.00,Acu-Link.com,2013-03-19 21:25:00,
2013-03-19 16:40:00,29.8,16.4,30.10,NW,315,7.3,-999.0,57,-99.99,,,0.00,Acu-Link.com,2013-03-19 21:40:00,
2013-03-19 16:55:00,29.7,16.8,30.11,WNW,292,13.5,-999.0,58,-99.99,,,0.00,Acu-Link.com,2013-03-19 21:55:00,
2013-03-19 17:10:00,28.6,15.7,30.12,NW,315,15.5,-999.0,58,-99.99,,,0.00,Acu-Link.com,2013-03-19 22:10:00,
2013-03-19 17:26:00,28.8,16.3,30.13,WNW,292,10.9,-999.0,59,-99.99,,,0.00,Acu-Link.com,2013-03-19 22:26:00,
2013-03-19 17:56:00,27.1,16.2,30.15,NNW,337,9.9,-999.0,63,-99.99,,,0.00,Acu-Link.com,2013-03-19 22:56:00,
2013-03-19 18:11:00,24.8,14.7,30.15,NNW,337,21.2,-999.0,65,-99.99,,,0.00,Acu-Link.com,2013-03-19 23:11:00,
2013-03-19 18:26:00,24.8,14.7,30.16,NW,315,13.0,-999.0,65,-99.99,,,0.00,Acu-Link.com,2013-03-19 23:26:00,
2013-03-19 18:57:00,22.1,13.8,30.17,WNW,292,9.9,-999.0,70,-99.99,,,0.00,Acu-Link.com,2013-03-19 23:57:00,
2013-03-19 19:27:00,21.0,12.8,30.19,WNW,292,18.1,-999.0,70,-99.99,,,0.00,Acu-Link.com,2013-03-20 00:27:00,
2013-03-19 19:42:00,19.9,11.7,30.20,WNW,292,11.9,-999.0,70,-99.99,,,0.00,Acu-Link.com,2013-03-20 00:42:00,
2013-03-19 19:57:00,18.9,10.4,30.21,NW,315,12.5,-999.0,69,-99.99,,,0.00,Acu-Link.com,2013-03-20 00:57:00,
2013-03-19 20:12:00,18.1,10.6,30.20,NW,315,13.0,-999.0,72,-99.99,,,0.00,Acu-Link.com,2013-03-20 01:12:00,
2013-03-19 20:27:00,17.8,10.3,30.20,West,270,14.5,-999.0,72,-99.99,,,0.00,Acu-Link.com,2013-03-20 01:27:00,
2013-03-19 20:42:00,17.8,10.3,30.21,WNW,292,8.3,-999.0,72,-99.99,,,0.00,Acu-Link.com,2013-03-20 01:42:00,
2013-03-19 20:57:00,17.6,10.4,30.21,NW,315,11.4,-999.0,73,-99.99,,,0.00,Acu-Link.com,2013-03-20 01:57:00,
2013-03-19 21:12:00,17.8,10.3,30.22,NW,315,13.5,-999.0,72,-99.99,,,0.00,Acu-Link.com,2013-03-20 02:12:00,
2013-03-19 21:27:00,17.1,9.3,30.22,NW,315,17.1,-999.0,71,-99.99,,,0.00,Acu-Link.com,2013-03-20 02:27:00,
2013-03-19 21:42:00,16.5,8.1,30.23,WNW,292,15.0,-999.0,69,-99.99,,,0.00,Acu-Link.com,2013-03-20 02:42:00,
2013-03-19 21:57:00,16.2,8.2,30.23,NW,315,9.9,-999.0,70,-99.99,,,0.00,Acu-Link.com,2013-03-20 02:57:00,
2013-03-19 22:12:00,16.2,8.8,30.24,NW,315,9.9,-999.0,72,-99.99,,,0.00,Acu-Link.com,2013-03-20 03:12:00,
2013-03-19 22:27:00,16.0,8.9,30.24,NW,315,20.7,-999.0,73,-99.99,,,0.00,Acu-Link.com,2013-03-20 03:27:00,
2013-03-19 22:42:00,15.4,8.3,30.25,West,270,16.1,-999.0,73,-99.99,,,0.00,Acu-Link.com,2013-03-20 03:42:00,
2013-03-19 22:57:00,15.1,7.7,30.25,WNW,292,9.4,-999.0,72,-99.99,,,0.00,Acu-Link.com,2013-03-20 03:57:00,
2013-03-19 23:12:00,14.9,7.8,30.26,West,270,13.5,-999.0,73,-99.99,,,0.00,Acu-Link.com,2013-03-20 04:12:00,
2013-03-19 23:28:00,14.5,7.8,30.25,North,0,17.6,-999.0,74,-99.99,,,0.00,Acu-Link.com,2013-03-20 04:28:00,
2013-03-19 23:43:00,14.0,6.4,30.25,NW,315,14.5,-999.0,71,-99.99,,,0.00,Acu-Link.com,2013-03-20 04:43:00,
2013-03-19 23:58:00,13.5,5.6,30.26,NW,315,16.1,-999.0,70,-99.99,,,0.00,Acu-Link.com,2013-03-20 04:58:00,